Orbital Elements at Epoch 2459200.5 (2020-Dec-17.0) TDB
Reference: JPL 16 (heliocentric ecliptic J2000)
Element | Value | Uncertainty (1-sigma) | Units |
e | .1605672777915161 | 4.8564e-08 | |
a | 2.378192226597611 | 1.0684e-08 | au |
q | 1.996332374707888 | 1.1361e-07 | au |
i | 2.389115431414834 | 5.4422e-06 | deg |
node | 11.1352183537168 | 0.00010143 | deg |
peri | 183.697346467883 | 0.00010237 | deg |
M | 162.8151713569907 | 1.3815e-05 | deg |
tp | 2458594.655416331932 (2019-Apr-21.15541633) | 5.0359e-05 | TDB |
period | 1339.580631845952 3.67 | 9.0268e-06 2.471e-08 | d yr |
n | .2687408218973108 | 1.8109e-09 | deg/d |
Q | 2.760052078487333 | 1.2399e-08 | au |
|
| | Orbit Determination Parameters
Additional Information
|